Stone Corral
DateTemperatureDew Point
05/06 - 10:45 PM66.0°52.8°
05/06 - 10:30 PM66.3°53.1°
05/06 - 10:15 PM67.0°53.1°
05/06 - 10:00 PM67.1°52.9°
05/06 - 09:45 PM65.9°52.8°
05/06 - 09:30 PM63.9°52.9°
05/06 - 09:15 PM63.9°52.7°
05/06 - 09:00 PM64.4°52.8°
05/06 - 08:45 PM65.4°53.2°
05/06 - 08:30 PM66.8°53.3°
05/06 - 08:15 PM68.0°53.4°
05/06 - 08:00 PM69.5°53.5°
05/06 - 07:45 PM71.0°53.8°
05/06 - 07:30 PM72.5°53.7°
05/06 - 07:15 PM73.9°53.7°
05/06 - 07:00 PM75.1°53.5°
05/06 - 06:45 PM76.2°53.5°
05/06 - 06:30 PM77.0°53.5°
05/06 - 06:15 PM77.6°53.3°
05/06 - 06:00 PM78.5°53.6°
05/06 - 05:45 PM79.1°53.7°
05/06 - 05:30 PM79.6°53.8°
05/06 - 05:15 PM79.5°53.7°
05/06 - 05:00 PM79.1°53.3°
05/06 - 04:45 PM79.9°53.6°
05/06 - 04:30 PM79.9°53.6°
05/06 - 04:15 PM79.9°53.7°
05/06 - 04:00 PM80.0°53.6°
05/06 - 03:45 PM79.9°53.5°
05/06 - 03:30 PM81.0°53.7°
05/06 - 03:15 PM80.4°53.4°
05/06 - 03:00 PM81.2°53.3°
05/06 - 02:45 PM82.8°53.8°
05/06 - 02:30 PM81.0°53.6°
05/06 - 02:15 PM80.7°53.4°
05/06 - 02:00 PM80.5°53.3°
05/06 - 01:45 PM80.3°52.9°
05/06 - 01:30 PM80.3°53.2°
05/06 - 01:15 PM80.4°52.7°
05/06 - 01:00 PM80.5°53.1°
05/06 - 12:45 PM79.1°52.5°
05/06 - 12:30 PM79.7°52.3°
05/06 - 12:15 PM79.0°52.6°
05/06 - 12:00 PM78.0°52.2°
05/06 - 11:45 AM77.9°51.9°
05/06 - 11:30 AM76.1°52.3°
05/06 - 11:15 AM74.0°51.0°
05/06 - 11:00 AM75.1°51.9°
05/06 - 10:45 AM74.1°52.6°
05/06 - 10:30 AM72.1°52.6°
05/06 - 10:15 AM70.7°52.3°
05/06 - 10:00 AM68.9°51.9°
05/06 - 09:45 AM67.5°51.3°
05/06 - 09:30 AM66.4°51.3°
05/06 - 09:15 AM65.6°51.5°
05/06 - 09:00 AM64.0°50.8°
05/06 - 08:45 AM63.0°50.8°
05/06 - 08:30 AM61.5°50.2°
05/06 - 08:15 AM60.7°49.7°
05/06 - 08:00 AM59.6°49.7°
05/06 - 07:45 AM58.5°48.3°
05/06 - 07:30 AM57.7°47.8°
05/06 - 07:15 AM56.3°47.6°
05/06 - 07:00 AM55.3°47.3°
05/06 - 06:45 AM54.8°46.7°
05/06 - 06:30 AM54.1°46.7°
05/06 - 06:15 AM53.2°46.6°
05/06 - 06:00 AM53.1°46.7°
05/06 - 05:45 AM53.6°46.5°
05/06 - 05:30 AM53.1°46.3°
05/06 - 05:15 AM52.8°46.7°
05/06 - 05:00 AM52.2°47.2°
05/06 - 04:45 AM51.1°46.9°
05/06 - 04:30 AM51.3°46.7°
05/06 - 04:15 AM52.3°47.0°
05/06 - 04:00 AM52.0°46.8°
05/06 - 03:45 AM51.3°47.2°
05/06 - 03:30 AM50.3°47.1°
05/06 - 03:15 AM49.3°46.3°
05/06 - 03:00 AM49.8°46.3°
05/06 - 02:45 AM51.0°46.6°
05/06 - 02:30 AM52.8°47.1°
05/06 - 02:15 AM54.5°47.1°
05/06 - 02:00 AM55.2°46.6°
05/06 - 01:45 AM54.6°46.9°
05/06 - 01:30 AM53.9°47.1°
05/06 - 01:15 AM55.4°47.2°
05/06 - 01:00 AM56.4°46.8°
05/06 - 12:45 AM56.7°46.7°
05/06 - 12:30 AM56.3°46.8°
05/06 - 12:15 AM55.9°47.0°
05/06 - 12:00 AM56.3°46.6°
05/05 - 11:45 PM56.9°46.7°
05/05 - 11:30 PM57.8°46.8°
05/05 - 11:15 PM58.2°46.7°
05/05 - 11:00 PM58.0°46.8°
05/05 - 10:45 PM57.8°47.0°
05/05 - 10:30 PM57.7°47.1°
05/05 - 10:15 PM56.9°47.2°
05/05 - 10:00 PM54.1°47.4°
05/05 - 09:45 PM52.9°47.3°
05/05 - 09:30 PM53.3°47.7°
05/05 - 09:15 PM54.2°48.3°
05/05 - 09:00 PM55.1°47.8°
05/05 - 08:45 PM55.5°47.5°
05/05 - 08:30 PM56.0°47.9°
05/05 - 08:15 PM57.0°48.2°
05/05 - 08:00 PM58.3°48.6°
05/05 - 07:45 PM60.2°49.1°
05/05 - 07:30 PM62.5°49.4°
05/05 - 07:15 PM63.9°48.7°
05/05 - 07:00 PM65.0°48.1°
05/05 - 06:45 PM65.7°48.2°
05/05 - 06:30 PM65.9°49.2°
05/05 - 06:15 PM66.4°48.2°
05/05 - 06:00 PM66.0°48.3°
05/05 - 05:45 PM65.7°48.4°
05/05 - 05:30 PM66.5°48.7°
05/05 - 05:15 PM68.3°49.5°
05/05 - 05:00 PM67.6°50.2°
05/05 - 04:45 PM68.0°49.9°
05/05 - 04:30 PM67.2°49.0°
05/05 - 04:15 PM66.4°47.7°
05/05 - 04:00 PM66.8°48.3°
05/05 - 03:45 PM66.9°48.3°
05/05 - 03:30 PM66.8°48.4°
05/05 - 03:15 PM66.7°48.2°
05/05 - 03:00 PM67.0°48.6°
05/05 - 02:45 PM67.1°48.9°
05/05 - 02:30 PM68.1°49.3°
05/05 - 02:15 PM69.0°50.1°
05/05 - 02:00 PM70.0°51.2°
05/05 - 01:45 PM70.2°51.5°
05/05 - 01:30 PM69.2°51.0°
05/05 - 01:15 PM68.1°51.1°
05/05 - 01:00 PM69.1°51.8°
05/05 - 12:45 PM70.3°52.3°
05/05 - 12:30 PM71.0°53.2°
05/05 - 12:15 PM70.1°53.7°
05/05 - 12:00 PM69.7°54.5°
05/05 - 11:45 AM65.7°53.7°
05/05 - 11:30 AM65.7°54.5°
05/05 - 11:15 AM64.4°54.3°
05/05 - 11:00 AM61.6°53.5°
05/05 - 10:45 AM62.1°53.5°
05/05 - 10:30 AM61.6°53.3°
05/05 - 10:15 AM61.7°53.8°
05/05 - 10:00 AM59.9°54.1°
05/05 - 09:45 AM58.3°53.6°
05/05 - 09:30 AM57.9°53.7°
05/05 - 09:15 AM57.9°54.4°
05/05 - 09:00 AM57.6°54.4°
05/05 - 08:45 AM57.0°53.9°
05/05 - 08:30 AM56.6°54.0°
05/05 - 08:15 AM55.8°53.8°
05/05 - 08:00 AM55.3°53.5°
05/05 - 07:45 AM55.3°53.4°
05/05 - 07:30 AM55.2°53.1°
05/05 - 07:15 AM55.0°52.9°
05/05 - 07:00 AM54.7°52.5°
05/05 - 06:45 AM54.6°52.1°
05/05 - 06:30 AM54.4°51.6°
05/05 - 06:15 AM54.4°51.6°
05/05 - 06:00 AM54.4°51.5°
05/05 - 05:45 AM54.2°51.4°
05/05 - 05:30 AM54.2°51.4°
05/05 - 05:15 AM54.3°51.4°
05/05 - 05:00 AM54.4°51.4°
05/05 - 04:45 AM54.5°51.1°
05/05 - 04:30 AM54.7°51.1°
05/05 - 04:15 AM54.9°51.1°
05/05 - 04:00 AM55.2°51.0°
05/05 - 03:45 AM55.4°50.8°
05/05 - 03:30 AM55.7°50.5°
05/05 - 03:15 AM55.7°50.3°
05/05 - 03:00 AM55.6°50.3°
05/05 - 02:45 AM55.2°50.3°
05/05 - 02:30 AM55.1°50.1°
05/05 - 02:15 AM55.2°49.9°
05/05 - 02:00 AM55.0°49.9°
05/05 - 01:45 AM54.9°50.3°
05/05 - 01:30 AM55.3°51.0°
05/05 - 01:15 AM55.7°51.1°
05/05 - 01:00 AM55.9°50.9°
05/05 - 12:45 AM55.6°50.9°
05/05 - 12:30 AM55.7°50.7°
05/05 - 12:15 AM55.9°50.8°
05/05 - 12:00 AM56.2°50.9°
05/04 - 11:45 PM56.0°51.1°
05/04 - 11:30 PM55.7°51.0°
05/04 - 11:15 PM55.8°51.3°